Weather in Fulpmes

Austria     47°09′07″N   11°20′54″E
temp.,
°C
wind,
m/s
gust,
m/s
humid.,
%
clouds,
%
prec.,
mm/h
press.,
hPa
HPBL,
m
12 april, mon
mon1223:00−1s229410 0.0 101962
02:00−2s2294100 0.0 101932
05:00−3sw219662 0.0 101919
08:000nnw1197100 0.6 1018138
11:00−1nnw3498100 3.8 1021283
14:00−1n3388100 6.5 1023801
17:00−2n3390100 2.1 1025659
20:00−5n2397100 4.9 1028322
13 april, tue
tue1323:00−6nnw2297100 3.3 1030256
02:00−7n1297100 6.5 1030195
05:00−7nnw1298100 1.9 1030130
08:00−7nnw1296100 3.0 1030216
11:00−4n2286100 0.8 1029741
14:00−2n2382100 1.7 10281089
17:00−2n2377100 0.8 10271055
20:00−7nw119898 1.1 103116
14 april, wed
wed1423:00−10wsw119890 0.3 103411
02:00−11sw219987 0.4 103417
05:00−12ssw119792 0.1 103413
08:00−8ne019481 0.3 1032154
11:00−3ene1277100 0.1 10281079
14:00−2ne1179100 0.5 1025964
17:00−2nne2287100 0.9 1024616
20:00−5n2399100 2.3 1027151
15 april, thu
thu1523:00−6n1199100 0.9 102864
02:00−9sw119892 1.2 103012
05:00−10ssw219799 0.2 103018
08:00−7ssw009490 0.3 1028107
11:00−3ene2281100 0.2 1025958
14:00−1ne2174100 0.8 10231233
17:00−1nne2282100 0.9 1022709
20:00−6n1199100 1.8 102519
16 april, fri
fri1623:00−8ssw119885 0.3 102812
02:00−8ssw1198100 0.4 102742
05:00−10ssw219632 0.0 102735
08:00−7s118827 0.0 102587
11:00−1ene218027 0.0 1021741
14:00+1ene227693 0.1 10191204
17:00+1ne227881 0.4 1018875
20:00−4ne119883 0.8 102118